EW9530 Weather Reports


time (UTC)temp
C
wind
direction
speed
KPH
gust
KPH
rain 1hr
cm
rain 24hr
cm
rain mn
cm
humidity
%
barometer
mb
20260504100149 20 360 0.0 8.0 0.00 0.00 0.00 67 1013.2
20260504081652 17 15 0.0 6.4 0.00 0.00 0.00 81 1014.2
20260504080148 16 28 1.6 8.0 0.00 0.00 0.00 83 1014.3
20260504060147 14 355 1.6 9.7 0.00 0.00 0.00 89 1014.5
20260504044652 13 26 0.0 1.6 0.00 0.00 0.00 91 1014.7
20260504043156 13 26 0.0 0.0 0.00 0.00 0.00 91 1014.9
20260504041651 13 26 0.0 0.0 0.00 0.00 0.00 90 1014.8
20260504034651 14 26 0.0 0.0 0.00 0.00 0.00 89 1014.7
20260504033155 14 26 0.0 3.2 0.00 0.00 0.00 88 1014.8
20260504031651 14 278 0.0 3.2 0.00 0.00 0.00 88 1014.7
20260504024652 14 292 0.0 4.8 0.00 0.00 0.00 88 1014.9
20260504023140 14 17 0.0 0.0 0.00 0.00 0.00 89 1014.9
20260504021650 14 17 0.0 0.0 0.00 0.00 0.00 89 1014.9
20260504020150 14 17 0.0 0.0 0.00 0.00 0.00 89 1014.9
20260504014650 15 17 0.0 0.0 0.00 0.00 0.00 88 1015.1
20260504013200 14 17 0.0 0.0 0.00 0.00 0.00 90 1015.1
20260504011650 14 17 0.0 0.0 0.00 0.00 0.00 90 1015.3
20260504010146 15 17 0.0 0.0 0.00 0.00 0.00 89 1015.4
20260504004651 15 17 0.0 0.0 0.00 0.00 0.00 89 1015.5
20260504003157 15 17 0.0 0.0 0.00 0.00 0.00 89 1015.5
20260504001652 15 101 0.0 0.0 0.00 0.00 0.00 88 1015.6
20260503234651 15 196 0.0 0.0 0.00 0.00 0.00 89 1015.6
20260503233156 15 196 0.0 0.0 0.00 0.00 0.00 88 1015.7
20260503231650 15 196 0.0 0.0 0.00 0.00 0.00 87 1015.7
20260503230151 15 196 0.0 0.0 0.00 0.00 0.00 87 1015.7
20260503224502 15 196 0.0 0.0 0.00 0.00 0.00 87 1015.7
20260503223156 15 196 0.0 1.6 0.00 0.00 0.00 87 1015.6
20260503221653 15 163 0.0 3.2 0.00 0.00 0.00 87 1015.8
20260503214650 15 146 0.0 0.0 0.00 0.00 0.00 84 1015.5
20260503213156 16 146 0.0 0.0 0.00 0.00 0.00 83 1015.8
20260503211650 15 146 0.0 0.0 0.00 0.00 0.00 82 1015.9
20260503204653 16 146 0.0 3.2 0.00 0.00 0.00 82 1016.1
20260503203140 16 146 0.0 0.0 0.00 0.00 0.00 81 1016.0
20260503201652 16 146 0.0 1.6 0.00 0.00 0.00 81 1016.1
20260503194651 16 162 0.0 9.7 0.00 0.00 0.00 80 1016.1
20260503193141 16 184 3.2 8.0 0.00 0.00 0.00 78 1016.0
20260503191656 16 140 3.2 6.4 0.00 0.00 0.00 77 1015.6
20260503190148 16 138 0.0 3.2 0.00 0.00 0.00 75 1015.5
20260503184653 16 123 0.0 4.8 0.00 0.00 0.00 74 1015.5
20260503183155 16 119 1.6 11.3 0.00 0.00 0.00 73 1015.6
20260503181652 16 120 3.2 11.3 0.00 0.00 0.00 73 1015.5
20260503174651 16 174 4.8 12.9 0.00 0.00 0.00 73 1015.6
20260503173138 16 147 3.2 11.3 0.00 0.00 0.00 75 1015.4
20260503171652 16 161 9.7 14.5 0.00 0.00 0.00 76 1015.3
20260503170152 16 118 8.0 14.5 0.00 0.00 0.00 76 1015.3
20260503160148 18 110 1.6 12.9 0.00 0.00 0.00 70 1014.9
20260503140149 19 164 4.8 14.5 0.00 0.00 0.00 63 1016.0